Flag for Switzerland Weather past 2 weeks in Oftringen, Aargau, Switzerland

Now
64 °F

Mild.


Feels Like: 64 °F
Forecast: 52 / 62 °F
Wind: 2 mph from Southwest

Location: Wynau

Current Time: May 5, 2015 at 12:15:16 PM

Latest Report: May 5, 2015 at 11:00 AM


Visibility: N/A

Pressure: 29.74 "Hg

Humidity: 85%

Dew point: 59 °F

Location of OftringenLocation

Historic Weather in Oftringen — Graph

°F

Oftringen temperature yesterday

Maximum temperature yesterday: 68 °F (at 4:00 PM)
Minimum temperature yesterday: 57 °F (at 7:00 AM)
Average temperature yesterday: 61 °F

Past Weeks' High & Low Weather Summary

 TemperatureHumidityPressure
High72 °F (Apr 22, 4:00 PM)100% (Apr 27, 6:00 AM)30.38 "Hg (Apr 27, 6:00 AM)
Low36 °F (Apr 22, 7:00 AM)18% (Apr 22, 6:00 PM)29.44 "Hg (Apr 27, 4:00 PM)
Average54 °F76%29.94 "Hg
* Reported Apr 20 12:00 Noon — May 5 11:00 AM, Oftringen, Weather by CustomWeather, © 2015

Note: Actual official high and low records may vary slightly from our data, if they occured in-between our weather recording intervals... More about our weather records

Advertising

Oftringen weather history for previous 24 hours

 ConditionsComfort  
Time TempWeatherWind HumidityBarometerVisibility
11:00 AM
Tue, May 5
64 °FMild.2 mph85%29.74 "HgN/A
10:00 AM61 °FCool.3 mph93%29.72 "HgN/A
9:00 AM59 °FCool.2 mph95%29.71 "HgN/A
8:00 AM58 °FCool.2 mph99%29.70 "HgN/A
7:00 AM58 °FCool.2 mph100%29.67 "HgN/A
6:00 AM58 °FCool.2 mph99%29.66 "HgN/A
5:00 AM58 °FCool.3 mph98%29.68 "HgN/A
4:00 AM60 °FCool.2 mph97%29.67 "HgN/A
3:00 AM59 °FCool.3 mph98%29.69 "HgN/A
2:00 AM58 °FCool.3 mph97%29.70 "HgN/A
1:00 AM56 °FCool.2 mph98%29.70 "HgN/A
12:00 AM57 °FCool.1 mph100%29.70 "HgN/A
11:00 PM
Mon, May 4
59 °FCool.2 mph99%29.73 "HgN/A
10:00 PM61 °FCool.2 mph96%29.77 "HgN/A
9:00 PM61 °FCool.1 mph98%29.75 "HgN/A
8:00 PM65 °FMild.3 mph86%29.75 "HgN/A
7:00 PM67 °FMild.2 mph83%29.75 "HgN/A
6:00 PM67 °FMild.2 mph79%29.78 "HgN/A
5:00 PM67 °FMild.2 mph77%29.80 "HgN/A
4:00 PM68 °FMild.1 mph77%29.81 "HgN/A
3:00 PM65 °FMild.2 mph80%29.84 "HgN/A
2:00 PM64 °FMild.3 mph85%29.87 "HgN/A
1:00 PM62 °FMild.3 mph90%29.88 "HgN/A
12:00 PM61 °FCool.2 mph90%29.89 "HgN/A
Weather by CustomWeather, © 2015

See weather overviewHow to use our weather pages